This demonstration page uses our WeatherBlox Daily Observations layout. Learn more.

Left ArrowRight Arrow

39.01783, -85.05884

Hourly Observations for October 6, 2019

Temp ( °F °C ) Dew Point ( °F °C ) Humidity (%) Winds ( mph kmh ) Pressure ( in mb ) Visibility ( mi km ) Precip ( " mm )
12:52 am 00:52 Cloudy 68 20 51 10.6 55 55 SSW 5 7 29.96 1015 10 16 0.00 0.00
1:52 am 01:52 Cloudy with Light Rain 64 17.8 56 13.3 75 75 SW 3 6 29.98 1015 6 10 0.03 0.76
2:52 am 02:52 Cloudy 64 17.8 56 13.3 75 75 ESE 3 6 29.96 1015 10 16 0.00 0.00
3:52 am 03:52 Cloudy 62 16.7 58 14.4 86 86 S 3 6 29.96 1015 10 16 0.00 0.00
4:52 am 04:52 Cloudy 64 17.8 56 13.3 75 75 SW 6 9 29.99 1016 10 16 0.00 0.00
5:52 am 05:52 Cloudy 62 16.7 57 13.9 84 84 S 5 7 30.01 1016 10 16 0.00 0.00
6:52 am 06:52 Mostly Cloudy 62 16.7 58 14.4 86 86 S 5 7 30.04 1017 10 16 0.00 0.00
7:52 am 07:52 Cloudy 63 17.2 57 13.9 81 81 S 5 7 30.05 1018 10 16 0.00 0.00
8:52 am 08:52 Mostly Cloudy 66 18.9 59 15 78 78 S 7 11 30.06 1018 10 16 0.00 0.00
9:43 am 09:43 Mostly Cloudy 68 20 63 17.2 84 84 SSW 10 17 30.06 1018 9 14 0.00 0.00
9:52 am 09:52 Mostly Cloudy 70 21.1 64 17.8 82 82 SSW 14 22 30.06 1018 9 14 0.00 0.00
10:52 am 10:52 Mostly Cloudy 72 22.2 64 17.8 76 76 SW 14 22 30.08 1019 10 16 0.00 0.00
11:52 am 11:52 Mostly Cloudy 75 23.9 62 16.7 64 64 SW 15 24 30.08 1019 10 16 0.00 0.00
12:52 pm 12:52 Cloudy with Light Rain 73 22.8 61 16.1 66 66 W 13 20 30.09 1019 7 11 0.01 0.25
1:52 pm 13:52 Mostly Cloudy 72 22.2 59 15 64 64 WNW 12 19 30.09 1019 10 16 0.00 0.00
2:52 pm 14:52 Cloudy 73 22.8 56 13.3 55 55 W 8 13 30.07 1018 10 16 0.00 0.00
3:52 pm 15:52 Cloudy 73 22.8 56 13.3 55 55 W 7 11 30.07 1018 10 16 0.00 0.00
4:52 pm 16:52 Cloudy 71 21.7 56 13.3 59 59 NW 9 15 30.07 1018 10 16 0.00 0.00
5:52 pm 17:52 Cloudy 70 21.1 59 15 68 68 NNW 12 19 30.08 1019 10 16 0.00 0.00
7:52 pm 19:52 Cloudy with Rain 63 17.2 59 15 87 87 N 6 9 30.10 1019 8 13 0.06 1.52
8:52 pm 20:52 Cloudy with Light Rain 62 16.7 58 14.4 86 86 N 6 9 30.11 1020 6 10 0.09 2.29
9:52 pm 21:52 Cloudy with Rain 61 16.1 57 13.9 87 87 ENE 9 15 30.09 1019 10 16 0.08 2.03
10:08 pm 22:08 Cloudy with Rain 63 17.2 58 14.4 84 84 N 6 9 30.11 1020 5 8 0.04 1.02
10:27 pm 22:27 Cloudy with Light Rain 60 15.6 57 13.9 90 90 NNW 7 11 30.12 1020 10 16 0.06 1.52
10:52 pm 22:52 Cloudy 60 15.6 57 13.9 90 90 N 10 17 30.11 1020 10 16 0.06 1.52
11:15 pm 23:15 Cloudy 60 15.6 57 13.9 90 90 NNW 8 13 30.14 1021 10 16 0.00 0.00
11:52 pm 23:52 Cloudy with Light Rain 58 14.4 55 12.8 90 90 NNW 9 15 30.13 1020 8 13 0.01 0.25

Powered by AerisWeather